Wind_Speed
11 12 9 10 9 7 8 11 8 16 14 6 6 7 11 8 5 12 11 17 17 14 14 14 12 14 16 15 14 14 14 13 14 14 14 13 12 12
12 12 15 11 9 12 12 9 12 9 15 12 9 13 13 14 11 14 20 16 15 12 10 13 16 15 16 17 16 17 16 16 16 16 15 15 14 14
19 18 18 16 14 13 11 10 9 13 16 18 22 22 18 16 12 19 19 17 15 12 17 15 13 14 16 17 19 19 19 18 18 18 17 16 16 15
15 13 16 14 14 12 11 11 13 12 17 21 22 20 16 14 18 20 21 22 18 21 20 15 16 17 16 18 19 19 19 19 19 20 19 18 18 17
19 18 14 13 15 17 15 15 17 19 18 17 22 21 21 19 22 21 21 26 24 19 26 22 20 21 20 20 19 20 22 22 22 21 21 21 20 21
21 18 18 16 16 18 17 17 17 17 18 20 20 21 21 22 24 21 20 23 28 27 29 25 20 20 19 18 17 19 21 23 24 24 24 23 23 22
21 21 19 15 18 20 20 21 22 23 25 25 25 27 28 27 24 29 30 27 30 32 27 26 32 27 25 22 21 20 20 22 24 25 25 26 26 23
22 21 19 22 19 20 20 20 21 22 22 23 26 29 30 31 33 29 31 31 29 27 19 19 17 20 25 26 24 22 21 21 20 24 25 26 26 25
22 24 21 15 18 16 18 24 26 24 24 24 26 26 29 26 22 25 25 27 24 24 20 25 26 30 24 24 25 25 24 24 20 19 23 25 24 25
27 22 21 24 27 28 29 30 28 22 22 25 26 27 28 28 28 30 29 28 31 29 26 28 23 23 25 25 22 24 25 24 24 22 22 20 25 23
33 33 34 34 33 30 28 28 27 29 27 24 23 23 26 26 26 28 27 27 31 29 22 21 24 23 27 28 28 27 26 25 23 21 20 20 25 24
29 30 29 28 30 29 27 29 30 22 22 23 24 27 27 29 20 17 16 17 16 17 12 19 17 19 23 27 29 28 25 24 22 20 19 21 23 27
28 28 29 27 29 29 26 22 22 24 22 22 25 27 18 13 17 16 17 18 19 16 17 22 21 17 16 20 21 20 21 20 21 19 20 21 22 23
31 25 28 32 31 31 24 21 22 22 22 21 19 11 14 18 16 20 20 20 19 21 19 20 24 22 21 19 24 26 21 15 17 17 20 19 21 19
33 32 32 32 30 27 23 22 22 19 17 14 12 16 13 12 17 20 18 15 17 16 16 18 21 23 26 17 15 16 15 16 18 19 17 21 23 24
32 36 37 27 25 27 25 22 18 15 12 13 12 12 11 14 12 12 14 16 14 12 15 14 17 18 21 24 15 12 12 14 18 18 19 22 24 25
31 27 25 29 27 25 21 17 12 12 13 10 9 10 11 12 11 13 12 12 12 13 12 12 14 13 13 16 20 16 14 15 16 16 23 23 24 26
32 33 27 19 15 12 13 15 17 17 14 10 8 10 13 11 9 10 11 9 9 10 12 12 11 10 9 12 17 18 10 13 14 17 25 24 24 27
33 27 21 19 18 21 23 19 16 20 20 12 9 10 12 11 10 8 9 10 9 11 11 11 10 8 10 13 13 18 17 14 15 17 19 23 24 23
26 24 22 20 20 19 17 17 17 20 18 12 13 14 13 10 10 10 7 7 11 9 9 8 8 8 9 11 11 13 14 16 17 15 18 22 23 23
25 27 25 23 21 21 21 19 16 20 17 13 11 13 13 13 11 10 10 8 9 10 8 5 6 7 9 11 9 10 11 14 18 18 17 21 23 25
26 26 28 26 22 21 19 20 19 21 15 13 14 16 14 13 12 12 14 10 8 8 7 6 5 5 9 12 13 15 15 12 17 20 20 21 23 27
28 24 20 21 23 25 24 21 19 19 11 11 12 11 13 13 11 13 13 10 10 9 7 7 7 7 7 8 11 14 11 11 12 18 21 22 21 19
Wind_Direction
246 274 286 254 226 276 286 277 284 289 309 289 310 258 260 240 235 281 287 284 273 273 269 267 272 262 257 257 257 259 261 262 263 263 263 264 270 272
263 248 256 258 245 274 285 291 274 299 297 286 305 289 328 299 249 278 281 277 281 283 281 275 269 268 261 255 256 260 261 263 261 261 260 261 263 269
245 241 250 255 242 242 235 271 266 284 293 280 286 294 297 298 274 274 298 282 276 287 285 275 276 270 261 260 261 266 257 260 260 260 262 262 263 264
252 246 260 261 258 260 261 276 270 283 293 293 299 300 302 295 287 289 291 296 277 263 268 260 258 269 267 258 259 262 259 259 258 259 261 261 261 258
248 252 253 248 242 262 267 261 267 270 283 286 290 301 306 305 305 300 298 293 286 283 271 270 272 279 275 270 268 266 262 259 258 257 258 258 256 256
246 254 258 258 253 271 275 282 283 284 277 278 283 286 286 291 297 306 290 278 281 283 280 272 271 267 269 272 279 277 271 264 260 257 256 255 255 256
254 248 254 253 258 270 276 283 284 279 279 280 281 282 283 283 281 293 295 283 276 282 269 270 266 256 259 264 274 273 280 270 261 259 258 254 252 253
257 252 254 248 259 274 279 282 278 277 279 280 281 281 282 286 289 289 287 284 280 273 279 263 272 261 264 270 274 266 274 275 270 257 257 254 249 245
253 257 256 253 265 260 262 268 274 276 274 277 279 283 289 286 283 297 299 288 275 278 276 272 268 266 269 269 265 255 248 261 268 275 261 254 245 237
244 249 249 249 249 254 264 270 278 277 272 279 282 287 292 288 289 292 292 287 281 279 282 289 290 281 269 271 261 245 251 257 265 272 270 253 234 237
255 254 254 257 260 266 264 266 266 271 274 274 278 280 284 287 290 289 285 284 283 286 294 288 288 280 266 265 262 255 255 260 263 266 262 239 231 230
259 264 263 261 259 262 267 276 275 268 268 269 264 269 280 293 297 299 303 304 291 293 278 271 276 276 263 258 255 258 261 263 257 250 241 232 227 228
253 258 261 261 265 265 271 268 273 277 278 275 273 276 286 294 303 286 294 297 303 281 265 277 280 272 269 270 265 261 269 263 246 244 240 232 223 223
252 260 252 258 266 274 278 272 273 279 279 279 281 265 255 265 259 274 283 289 290 290 290 271 275 276 277 280 271 265 261 255 244 238 233 227 211 215
263 258 258 261 267 277 271 273 276 274 272 270 264 265 268 257 264 272 275 272 281 298 283 280 279 270 263 278 263 256 251 241 236 238 229 228 219 201
272 264 269 267 276 279 273 271 270 267 258 262 269 273 258 254 262 273 271 281 277 285 283 290 292 280 265 256 261 240 262 241 232 229 231 225 210 204
282 266 267 275 275 274 265 260 258 275 266 269 274 265 263 260 269 276 287 290 281 274 291 302 296 290 263 251 250 266 254 245 241 238 220 215 212 213
249 263 268 268 264 259 257 258 264 271 276 278 261 260 261 252 270 273 293 305 300 287 279 294 303 288 271 256 247 244 254 249 241 242 218 217 220 216
245 249 239 246 237 239 247 232 240 257 274 257 255 261 256 245 260 275 280 298 305 303 298 295 287 282 259 259 255 243 254 249 234 236 242 230 227 231
233 238 233 228 229 239 240 241 238 256 264 251 248 258 247 255 254 270 275 282 301 317 315 294 269 268 248 257 266 265 259 249 234 239 234 234 233 239
236 228 225 226 228 232 238 250 241 244 265 252 251 253 239 240 245 260 269 254 281 304 321 312 272 251 239 241 262 260 275 250 233 233 232 227 238 238
235 232 224 218 223 233 234 235 242 253 253 242 243 247 250 236 248 245 258 256 261 269 287 306 312 252 243 256 267 271 271 259 234 232 231 233 244 237
227 230 219 217 222 227 231 230 240 256 245 238 245 254 242 244 246 241 249 262 248 250 251 262 272 276 277 269 271 283 281 267 249 236 236 234 232 238
Height
1573 1573 1573 1573 1573 1574 1574 1573 1573 1572 1574 1577 1577 1573 1573 1570 1571 1572 1568 1569 1571 1570 1570 1570 1570 1571 1572 1574 1574 1575 1576 1577 1577 1577 1578 1579 1578 1578
1571 1573 1572 1573 1572 1572 1573 1573 1571 1571 1571 1573 1573 1573 1573 1572 1572 1575 1570 1566 1566 1565 1564 1563 1564 1566 1567 1569 1570 1571 1572 1573 1574 1574 1575 1575 1576 1575
1569 1570 1570 1572 1571 1570 1569 1570 1570 1569 1568 1568 1567 1569 1572 1569 1572 1572 1569 1565 1563 1562 1560 1558 1558 1559 1561 1563 1564 1566 1567 1568 1569 1570 1571 1571 1572 1572
1564 1567 1567 1567 1568 1569 1569 1567 1567 1568 1567 1564 1561 1562 1566 1570 1570 1568 1564 1562 1562 1561 1557 1555 1555 1556 1557 1557 1558 1559 1561 1563 1564 1565 1566 1567 1567 1568
1562 1563 1563 1564 1565 1565 1566 1564 1564 1563 1563 1561 1558 1557 1558 1559 1560 1560 1559 1555 1556 1558 1558 1555 1553 1555 1553 1553 1553 1553 1555 1556 1557 1559 1560 1562 1562 1563
1559 1561 1561 1562 1561 1562 1561 1562 1561 1559 1557 1556 1555 1554 1554 1555 1554 1552 1552 1547 1548 1553 1553 1550 1550 1550 1551 1549 1548 1547 1548 1550 1551 1553 1554 1555 1557 1558
1555 1557 1558 1558 1559 1559 1558 1558 1557 1555 1553 1551 1550 1548 1548 1548 1549 1547 1542 1542 1544 1546 1546 1536 1533 1547 1545 1543 1541 1540 1541 1543 1545 1546 1548 1549 1551 1553
1551 1552 1553 1554 1554 1554 1553 1552 1552 1550 1548 1546 1544 1542 1541 1541 1540 1540 1537 1535 1535 1540 1538 1538 1536 1538 1538 1535 1535 1534 1535 1537 1537 1539 1541 1543 1545 1547
1547 1548 1548 1549 1550 1548 1547 1545 1545 1545 1543 1541 1538 1537 1534 1533 1532 1531 1530 1528 1527 1528 1530 1530 1533 1532 1529 1526 1525 1526 1529 1531 1533 1534 1534 1536 1538 1541
1543 1544 1544 1543 1543 1542 1542 1539 1537 1537 1535 1535 1532 1531 1529 1527 1526 1524 1522 1520 1517 1518 1521 1519 1521 1520 1519 1518 1518 1521 1523 1525 1527 1528 1528 1529 1533 1536
1534 1536 1536 1535 1534 1534 1533 1533 1532 1530 1531 1528 1526 1525 1523 1522 1520 1517 1515 1514 1510 1509 1510 1511 1511 1512 1511 1513 1515 1517 1518 1520 1521 1522 1523 1524 1528 1531
1526 1527 1528 1529 1527 1528 1527 1527 1525 1524 1522 1521 1521 1518 1517 1516 1516 1513 1512 1509 1508 1507 1509 1508 1508 1508 1507 1506 1508 1510 1511 1513 1515 1516 1518 1520 1523 1526
1519 1518 1519 1522 1524 1524 1522 1521 1520 1519 1517 1514 1514 1513 1512 1511 1510 1509 1507 1507 1506 1506 1506 1503 1502 1504 1505 1502 1504 1504 1505 1506 1508 1511 1514 1516 1518 1521
1518 1520 1518 1517 1518 1519 1518 1516 1514 1512 1510 1508 1507 1507 1506 1507 1508 1506 1504 1502 1502 1501 1501 1500 1499 1500 1500 1498 1500 1500 1500 1501 1503 1506 1509 1512 1515 1518
1516 1514 1514 1513 1513 1512 1512 1510 1508 1505 1504 1502 1502 1502 1502 1503 1503 1502 1501 1499 1498 1496 1495 1494 1494 1494 1495 1495 1494 1495 1497 1498 1500 1503 1505 1508 1511 1513
1505 1508 1507 1506 1507 1505 1506 1504 1502 1500 1499 1496 1496 1498 1498 1499 1498 1498 1496 1495 1494 1494 1492 1491 1490 1489 1488 1490 1492 1492 1494 1495 1497 1499 1502 1504 1507 1511
1497 1505 1499 1499 1498 1498 1499 1500 1498 1497 1496 1493 1491 1493 1494 1494 1493 1493 1492 1490 1490 1488 1488 1487 1486 1485 1485 1485 1488 1489 1491 1492 1494 1497 1499 1501 1504 1507
1496 1499 1493 1492 1491 1493 1496 1497 1495 1494 1493 1489 1488 1490 1491 1490 1488 1489 1489 1487 1486 1485 1484 1484 1483 1482 1482 1483 1485 1487 1489 1490 1492 1494 1495 1499 1501 1504
1484 1486 1486 1486 1488 1491 1494 1495 1493 1490 1491 1488 1485 1486 1488 1487 1486 1486 1485 1484 1484 1482 1481 1481 1481 1481 1482 1482 1483 1484 1486 1487 1489 1491 1494 1496 1498 1502
1472 1476 1479 1481 1484 1486 1489 1492 1487 1486 1486 1485 1483 1484 1484 1484 1483 1484 1482 1480 1480 1479 1478 1479 1480 1480 1481 1482 1482 1483 1483 1484 1486 1487 1490 1493 1496 1499
1466 1469 1473 1477 1478 1482 1484 1486 1484 1482 1481 1481 1479 1479 1480 1479 1478 1479 1478 1478 1476 1476 1475 1477 1479 1480 1480 1481 1481 1480 1481 1481 1483 1485 1486 1489 1491 1493
1461 1463 1467 1472 1473 1477 1479 1480 1479 1477 1476 1476 1476 1477 1477 1475 1475 1475 1475 1473 1473 1473 1472 1474 1477 1478 1479 1480 1479 1478 1478 1478 1480 1482 1483 1486 1487 1487
1455 1458 1461 1465 1467 1470 1473 1473 1474 1474 1472 1473 1472 1471 1472 1471 1470 1473 1473 1471 1470 1469 1469 1471 1474 1476 1477 1477 1478 1476 1476 1476 1476 1477 1479 1480 1482 1484